Location: ČR
(50.0000°N, 15.0000°E)
Time: 14:28:49
(UTC+00:00)

Explorer 7 - Pass Details

Date: 27 October 2021
Orbit: 483 x 675 km, 50.3° (Epoch: 27 November)

Event Time Altitude Azimuth Distance (km) Brightness Sun altitude
Rises 00:20:07 0° 285° (WNW) 2,799 - -47.9°
Reaches altitude 10° 00:22:24 10° 279° (W) 1,930 - -47.7°
Maximum altitude 00:26:37 44° 208° (SSW) 855 - -47.3°
Drops below altitude 10° 00:31:04 10° 136° (SE) 2,032 - -46.8°
Sets 00:33:31 0° 130° (SE) 2,964 - -46.6°
